Location: Bh?mavarapp?du
(16.7041°N, 80.6518°E)
Time: 07:37:15
(UTC+00:00)

CZ-4 R/B - Pass Details

Date: 21 April 2021
Orbit: 581 x 588 km, 97.7° (Epoch: 05 May)

Event Time Altitude Azimuth Distance (km) Brightness Sun altitude
Rises 13:08:12 0° 163° (SSE) 2,787 7.6 -4.1°
Reaches altitude 10° 13:10:22 10° 161° (SSE) 1,889 6.7 -4.6°
Maximum altitude 13:14:26 69° 78° (ENE) 622 4.4 -5.5°
Drops below altitude 10° 13:18:30 10° 355° (N) 1,891 7.3 -6.5°
Sets 13:20:40 0° 353° (N) 2,791 8.2 -7.0°
